PLATFORM,ARGOS_ID,DATE (YYYY/MM/DD HH:MI:SS),LATITUDE (degree_north),LONGITUDE (degree_east),TEMP LEVEL0 (degree_Celsius),EWCT LEVEL1 (meter/second),NSCT LEVEL1 (meter/second),QC,SVP_RCBN_Number,SVP_GNRL_ImmPercent,SVP_GNRL_BattVolt
IF000194,67319,2006/09/08 17:04:15,48.3594,-4.5594,19.56,,,00144499,5,0,12.6
IF000194,67319,2006/09/08 18:00:07,48.3593,-4.5595,19.56,-0.002204,-0.003317,00144400,5,0,12.6
IF000194,67319,2006/09/08 19:00:16,48.3593,-4.5594,17.32,0.002047,0,00144400,5,0,12.7
IF000194,67319,2006/09/08 20:00:40,48.3594,-4.5593,16.44,0.002039,0.003068,00144400,6,0,12.7
IF000194,67319,2006/09/08 21:00:10,48.3593,-4.5594,15.72,-0.00207,-0.003115,00144400,7,0,12.7
IF000194,67319,2006/09/08 22:00:11,48.3596,-4.5594,15.16,0,0.009264,00144400,3,0,12.7
IF000194,67319,2006/09/08 23:00:40,48.3594,-4.5594,15.72,0,-0.006128,00144400,4,0,12.7
IF000194,67319,2006/09/09 00:00:10,48.3594,-4.5593,15.16,0.00207,0,00144400,6,0,12.7
IF000194,67319,2006/09/09 01:00:16,48.3595,-4.5594,15,-0.002049,0.003084,00144400,4,0,12.7
IF000194,67319,2006/09/09 02:00:40,48.3594,-4.5593,15,0.002039,-0.003068,00144400,5,0,12.7
IF000194,67319,2006/09/09 03:00:17,48.3593,-4.5593,14.92,0,-0.003109,00144400,4,0,12.7
IF000194,67319,2006/09/09 04:00:16,48.3594,-4.5594,15.32,-0.002053,0.00309,00144400,5,0,12.7
IF000194,67319,2006/09/09 05:00:17,48.3593,-4.5594,15.08,0,-0.003088,00144400,4,0,12.7
IF000194,67319,2006/09/09 06:00:40,48.3593,-4.5594,15.4,0,0,00144400,4,0,12.7
IF000194,67319,2006/09/09 07:00:11,48.3593,-4.5594,15.32,0,0,00144400,7,0,12.7
IF000194,67319,2006/09/09 08:00:12,48.3593,-4.5592,26.52,0.004104,0,00144400,5,0,12.7
IF000194,67319,2006/09/09 09:00:40,48.3593,-4.5594,31.32,-0.004073,0,00144400,6,0,12.7
IF000194,67319,2006/09/09 10:00:10,48.3593,-4.5595,26.12,-0.00207,0,00144400,1,0,12.7
IF000194,67319,2006/09/09 11:00:39,48.3593,-4.5594,35.88,0.002036,0,00144400,7,0,12.7
IF000194,67319,2006/09/09 12:00:12,48.3594,-4.5594,35.88,0,0.003112,00144400,5,0,12.7
IF000194,67319,2006/09/09 13:00:11,48.3593,-4.5594,35.88,0,-0.00309,00144400,5,0,12.6
IF000194,67319,2006/09/09 14:00:35,48.3594,-4.5594,27.64,0,0.003068,00144400,6,0,12.6
IF000194,67319,2006/09/09 15:00:11,48.3593,-4.5593,30.52,0.002066,-0.003109,00144400,7,0,12.6
IF000194,67319,2006/09/09 16:00:16,48.3593,-4.5593,25.8,0,0,00144400,4,0,12.7
IF000194,67319,2006/09/09 17:00:40,48.3594,-4.5593,23.4,0,0.003068,00144400,1,0,12.7
IF000194,67319,2006/09/09 18:00:11,48.3594,-4.5593,22.04,0,0,00144400,1,0,12.7
IF000194,67319,2006/09/09 19:00:11,48.3592,-4.5603,19.4,-0.020523,-0.006177,00144400,3,0,12.7
IF000194,67319,2006/09/09 20:00:40,48.3594,-4.5593,18.68,0.020359,0.006128,00144400,1,0,12.7
IF000194,67319,2006/09/09 21:00:10,48.3593,-4.5594,17.48,-0.00207,-0.003115,00144400,1,0,12.6
IF000194,67319,2006/09/09 22:00:10,48.3593,-4.5593,15.8,0.002052,0,00144400,1,0,12.6
IF000194,67319,2006/09/09 23:00:40,48.3593,-4.5594,15.16,-0.002035,0,00144400,1,0,12.6
IF000194,67319,2006/09/10 00:00:16,48.3593,-4.5594,15.56,0,0,00144400,4,0,12.6
IF000194,67319,2006/09/10 01:00:40,48.3593,-4.5594,15.72,0,0,00144400,4,0,12.6
IF000194,67319,2006/09/10 02:00:12,48.3593,-4.5593,14.68,0.002068,0,00144400,4,0,12.6
IF000194,67319,2006/09/10 03:00:16,48.3593,-4.5594,15.16,-0.00205,0,00144400,6,0,12.6
IF000194,67319,2006/09/10 04:00:40,48.3594,-4.5594,15.96,0,0.003068,00144400,1,0,12.6
IF000194,67319,2006/09/10 05:00:12,48.3593,-4.5594,16.2,0,-0.003113,00144400,3,0,12.6
IF000194,67319,2006/09/10 06:00:16,48.3592,-4.5596,15.88,-0.0041,-0.003085,00144400,3,0,12.6
IF000194,67319,2006/09/10 07:00:16,48.3587,-4.5604,16.76,-0.016419,-0.015444,00144400,3,0,12.6
IF000194,67319,2006/09/10 08:00:40,48.3592,-4.5595,16.92,0.018349,0.015341,00144400,5,0,12.6
IF000194,67319,2006/09/10 09:00:11,48.3593,-4.5594,19.56,0.002069,0.003114,00144400,5,0,12.6
IF000194,67319,2006/09/10 10:00:10,48.3592,-4.5592,23.32,0.004106,-0.00309,00144400,4,0,12.6
IF000194,67319,2006/09/10 11:00:40,48.3593,-4.5593,23.72,-0.002035,0.003063,00144400,3,0,12.6
IF000194,67319,2006/09/10 12:00:11,48.3593,-4.5594,25.48,-0.002069,0,00144400,1,0,12.6
IF000194,67319,2006/09/10 14:00:00,47.9582,-4.0977,26.52,4.76414,-6.20427,00144400,1,0,12.6
IF000194,67319,2006/09/10 15:00:00,47.8121,-3.9306,27,3.45981,-4.5105,00144400,1,0,12.6
IF000194,67319,2006/09/10 16:00:00,47.6661,-3.7636,28.04,3.46955,-4.51019,00144400,3,0,12.6
IF000194,67319,2006/09/10 17:00:00,47.5201,-3.5966,29.48,3.47927,-4.5105,00144400,1,0,12.6
IF000194,67319,2006/09/10 18:00:00,47.3741,-3.4295,29.72,3.48876,-4.51019,00144400,1,0,12.6
IF000194,67319,2006/09/10 21:00:00,46.9360,-2.9285,27.64,3.5083,-4.5104,00144400,1,0,12.6
IF000194,67319,2006/09/10 22:01:57,44.8677,-1.0904,25.8,55.0476,-88.7383,00144400,1,0,12.6
IF000194,67319,2006/09/10 23:00:00,46.6439,-2.5944,24.52,-48.069,81.11,00144400,1,0,12.6
IF000194,67319,2006/09/11 02:00:00,46.2059,-2.0933,22.92,3.55622,-4.51029,00144400,1,0,12.6
IF000194,67319,2006/09/11 03:01:03,44.8681,-1.0903,22.6,30.4817,-57.8548,00144400,1,0,12.6
IF000194,67319,2006/09/11 04:00:00,45.9138,-1.7592,22.2,-21.0538,46.7123,00144400,1,0,12.6
IF000194,67319,2006/09/11 05:00:00,45.7678,-1.5922,21.96,3.59413,-4.5105,00144400,4,0,12.6
IF000194,67319,2006/09/11 06:00:00,45.6218,-1.4252,21.64,3.60355,-4.51019,00144400,1,0,12.6
IF000194,67319,2006/09/11 07:00:00,45.4757,-1.2582,21.4,3.61295,-4.5105,00144400,1,0,12.6
IF000194,67319,2006/09/11 08:00:00,45.3297,-1.0911,21.88,3.62233,-4.51019,00144400,4,0,12.6
IF000194,67319,2006/09/11 09:00:00,45.1837,-0.9241,22.68,3.63168,-4.5105,00144400,6,0,12.6
IF000194,67319,2006/09/11 10:00:59,44.8596,-0.5532,27.08,7.9671,-9.84921,00144400,3,0,12.6
IF000194,67319,2006/09/11 11:00:41,44.8647,-0.5432,32.68,0.220032,0.158318,00144400,6,0,12.6
IF000194,67319,2006/09/11 12:00:12,45.0646,-0.6403,31.16,-2.13928,6.22455,00144400,6,0,12.6
IF000194,67319,2006/09/11 13:00:12,45.2959,-0.7641,30.68,-2.69536,7.14427,00144400,5,0,12.6
IF000194,67319,2006/09/11 14:00:41,45.4771,-0.9311,29.64,-3.59377,5.55209,00144400,9,0,12.6
IF000194,67319,2006/09/11 15:00:12,45.6003,-1.0655,31.08,-2.93128,3.83624,00144400,7,0,12.6
IF000194,67319,2006/09/11 16:00:41,45.6555,-1.2462,26.36,-3.87194,1.69136,00144400,3,0,12.6
IF000194,67319,2006/09/11 17:00:12,45.6602,-1.4796,25.32,-5.07969,0.14635,00144400,1,0,12.6
IF000194,67319,2006/09/11 19:00:12,45.7160,-1.9134,21.16,-4.68002,0.861761,00144100,1,0,12.6
IF000194,67319,2006/09/11 20:00:12,45.7089,-1.9157,21.16,-0.049605,-0.219301,00111100,3,0,12.5
IF000194,67319,2006/09/11 21:00:11,45.7013,-1.9230,21.16,-0.157507,-0.23481,00111100,3,0,12.6
IF000194,67319,2006/09/11 22:00:40,45.6945,-1.9341,21.08,-0.237548,-0.208356,00111100,4,0,12.6
IF000194,67319,2006/09/11 23:00:12,45.6897,-1.9462,20.92,-0.263108,-0.149422,00111100,7,0,12.6
IF000194,67319,2006/09/12 00:00:12,45.6905,-1.9544,20.84,-0.176924,0.02471,00111100,10,0,12.6
IF000194,67319,2006/09/12 01:00:41,45.6951,-1.9558,20.76,-0.029964,0.140947,00111100,6,0,12.6
IF000194,67319,2006/09/12 02:00:12,45.7031,-1.9505,20.6,0.115263,0.249107,00111100,5,0,12.6
IF000194,67319,2006/09/12 03:00:13,45.7107,-1.9410,20.6,0.204855,0.23468,00111100,9,0,12.6
IF000194,67319,2006/09/12 04:00:41,45.7148,-1.9304,20.52,0.22685,0.125661,00111100,7,0,12.6
IF000194,67319,2006/09/12 05:00:13,45.7146,-1.9216,20.6,0.191274,-0.006226,00111100,8,4,12.6
IF000194,67319,2006/09/12 06:00:12,45.7110,-1.9162,20.76,0.116496,-0.111226,00111100,7,0,12.6
IF000194,67319,2006/09/12 07:00:07,45.7061,-1.9141,20.84,0.045358,-0.151559,00111100,8,1,12.6
IF000194,67319,2006/09/12 08:00:41,45.7007,-1.9152,20.84,-0.023506,-0.165232,00111100,7,6,12.6
IF000194,67319,2006/09/12 09:00:17,45.6951,-1.9201,20.76,-0.106418,-0.174131,00111100,8,1,12.6
IF000194,67319,2006/09/12 10:00:09,45.6894,-1.9289,20.76,-0.190285,-0.176451,00111100,8,0,12.6
IF000194,67319,2006/09/12 11:00:41,45.6851,-1.9403,20.76,-0.243813,-0.131646,00111100,5,1,12.6
IF000194,67319,2006/09/12 12:00:13,45.6844,-1.9499,20.84,-0.208774,-0.021791,00111100,7,0,12.6
IF000194,67319,2006/09/12 13:00:12,45.6880,-1.9529,20.92,-0.064751,0.111226,00111100,6,0,12.6
IF000194,67319,2006/09/12 13:04:08,45.7747,153.0642,-2.52,73120.4,58.3962,00144400,1,90,13.9
IF000194,67319,2006/09/12 14:00:40,45.6958,-1.9498,20.84,-5087.29,-3.69768,00144100,7,0,12.6
IF000194,67319,2006/09/12 15:00:12,45.7038,-1.9416,20.84,0.17828,0.249037,00111100,9,0,12.6
IF000194,67319,2006/09/12 16:00:12,45.7094,-1.9314,20.92,0.220011,0.17297,00111100,5,0,12.6
IF000194,67319,2006/09/12 17:00:41,45.7111,-1.9216,21.08,0.209681,0.052089,00111100,7,0,12.6
IF000194,67319,2006/09/12 18:00:17,45.7092,-1.9141,21.08,0.162848,-0.05908,00111100,4,0,12.6
IF000194,67319,2006/09/12 19:00:12,45.7050,-1.9091,20.92,0.107998,-0.129908,00111100,4,0,12.6
IF000194,67319,2006/09/12 20:00:41,45.6998,-1.9074,20.92,0.036378,-0.159331,00111100,5,0,12.5
IF000194,67319,2006/09/12 21:00:12,45.6946,-1.9095,20.84,-0.045672,-0.161919,00111100,3,0,12.5
IF000194,67319,2006/09/12 22:00:12,45.6891,-1.9155,20.76,-0.129453,-0.169881,00111100,7,0,12.5
IF000194,67319,2006/09/12 23:00:11,45.6845,-1.9244,20.76,-0.192092,-0.142122,00111100,8,0,12.5
IF000194,67319,2006/09/13 00:00:41,45.6822,-1.9333,20.68,-0.190463,-0.070454,00111100,8,0,12.5
IF000194,67319,2006/09/13 01:00:12,45.6839,-1.9380,20.68,-0.102244,0.052935,00111100,3,0,12.5
IF000194,67319,2006/09/13 02:00:11,45.6896,-1.9355,20.6,0.053958,0.176108,00111100,7,0,12.5
IF000194,67319,2006/09/13 03:00:41,45.6969,-1.9290,20.6,0.139078,0.223615,00111100,9,0,12.5
IF000194,67319,2006/09/13 04:00:12,45.7027,-1.9210,20.68,0.17398,0.180602,00111100,8,1,12.5
IF000194,67319,2006/09/13 05:00:12,45.7052,-1.9128,20.68,0.17688,0.077219,00111100,8,0,12.5
IF000194,67319,2006/09/13 06:00:41,45.7041,-1.9066,20.68,0.132668,-0.033705,00111100,7,0,12.5
IF000194,67319,2006/09/13 07:00:12,45.7011,-1.9028,20.68,0.082637,-0.093415,00111100,9,0,12.5
IF000194,67319,2006/09/13 08:00:12,45.6972,-1.9014,20.6,0.030202,-0.120461,00111100,11,0,12.5
IF000194,67319,2006/09/13 09:00:36,45.6935,-1.9032,20.76,-0.038576,-0.113527,00111100,10,0,12.5
IF000194,67319,2006/09/13 10:00:13,45.6900,-1.9078,20.84,-0.099885,-0.108801,00111100,5,0,12.5
IF000194,67319,2006/09/13 11:00:11,45.6864,-1.9154,20.84,-0.164075,-0.111257,00111100,8,0,12.5
IF000194,67319,2006/09/13 12:00:41,45.6835,-1.9246,20.84,-0.196878,-0.088833,00111100,9,0,12.5
IF000194,67319,2006/09/13 13:00:12,45.6837,-1.9308,20.84,-0.134874,0.006228,00111100,11,0,12.5
IF000194,67319,2006/09/13 14:00:41,45.6878,-1.9309,20.92,-0.002141,0.125627,00111100,5,0,12.5
IF000194,67319,2006/09/13 15:00:12,45.6942,-1.9264,20.84,0.097879,0.199285,00111100,10,0,12.5
IF000194,67319,2006/09/13 16:00:12,45.7002,-1.9194,20.76,0.151014,0.185325,00111100,4,0,12.5
IF000194,67319,2006/09/13 17:00:08,45.7036,-1.9112,20.76,0.177084,0.105134,00111100,5,1,12.5
IF000194,67319,2006/09/13 18:00:41,45.7041,-1.9043,20.76,0.147487,0.015303,00111100,3,0,12.5
IF000194,67319,2006/09/13 19:00:12,45.7018,-1.8995,20.76,0.104382,-0.071618,00111100,4,0,12.5
IF000194,67319,2006/09/13 20:00:41,45.6987,-1.8965,20.76,0.064199,-0.094986,00111100,6,0,12.5
IF000194,67319,2006/09/13 21:00:12,45.6956,-1.8972,20.76,-0.015224,-0.096529,00111100,4,0,12.5
IF000194,67319,2006/09/13 22:00:12,45.6920,-1.8998,20.76,-0.056094,-0.111195,00111100,4,3,12.5
IF000194,67319,2006/09/13 23:00:11,45.6885,-1.9054,20.76,-0.120859,-0.108136,00111100,9,0,12.5
IF000194,67319,2006/09/14 00:00:41,45.6853,-1.9133,20.76,-0.169052,-0.098023,00111100,5,0,12.5
IF000194,67319,2006/09/14 01:00:13,45.6841,-1.9202,20.76,-0.150057,-0.037356,00111100,7,0,12.5
IF000194,67319,2006/09/14 02:00:11,45.6870,-1.9227,20.76,-0.053975,0.089623,00111100,8,0,12.5
IF000194,67319,2006/09/14 03:00:41,45.6926,-1.9206,20.76,0.044936,0.17154,00111100,10,0,12.5
IF000194,67319,2006/09/14 04:00:12,45.6983,-1.9143,20.68,0.13702,0.177488,00111100,4,0,12.5
IF000194,67319,2006/09/14 05:00:12,45.7027,-1.9069,20.68,0.159634,0.135905,00111100,1,0,12.5
IF000194,67319,2006/09/14 06:00:41,45.7038,-1.9001,20.6,0.145511,0.033705,00111100,5,0,12.5
IF000194,67319,2006/09/14 07:00:12,45.7021,-1.8944,20.6,0.123954,-0.052935,00111100,1,3,12.5
IF000194,67319,2006/09/14 08:00:08,45.6992,-1.8917,20.6,0.058309,-0.089673,00111100,9,3,12.5
IF000194,67319,2006/09/14 09:00:41,45.6959,-1.8907,20.6,0.021377,-0.101003,00111100,9,4,12.5
IF000194,67319,2006/09/14 10:00:12,45.6929,-1.8921,20.6,-0.03045,-0.093415,00111100,9,4,12.5
IF000194,67319,2006/09/14 11:00:11,45.6901,-1.8958,20.6,-0.079852,-0.086509,00111100,6,6,12.5
IF000194,67319,2006/09/14 12:00:36,45.6867,-1.9018,20.6,-0.128568,-0.104293,00111100,5,14,12.5
IF000194,67319,2006/09/14 13:00:12,45.6847,-1.9085,20.6,-0.145542,-0.06219,00111100,7,26,12.5
IF000194,67319,2006/09/14 14:00:11,45.6843,-1.9139,20.6,-0.116555,-0.012358,00111100,9,61,12.5
IF000194,67319,2006/09/14 15:00:11,45.6873,-1.9150,20.6,-0.023736,0.092662,00111100,5,88,12.5
IF000194,67319,2006/09/14 16:00:41,45.6924,-1.9115,20.52,0.074893,0.156224,00111100,1,88,12.5
IF000194,67319,2006/09/14 17:00:11,45.6971,-1.9054,20.44,0.132709,0.146391,00111100,3,93,12.5
IF000194,67319,2006/09/14 18:00:11,45.6999,-1.8982,20.36,0.155325,0.086485,00111100,8,95,12.5
IF000194,67319,2006/09/14 19:00:42,45.6996,-1.8917,20.2,0.139023,-0.009187,00111100,6,92,12.5
IF000194,67319,2006/09/14 20:00:41,45.6977,-1.8859,20.2,0.125157,-0.058703,00111100,5,93,12.5
IF000194,67319,2006/09/14 21:00:12,45.6951,-1.8803,20.12,0.121794,-0.08096,00111100,5,92,12.5
IF000194,67319,2006/09/14 22:00:13,45.6919,-1.8765,20.2,0.081961,-0.098812,00111100,3,84,12.5
IF000194,67319,2006/09/14 23:00:41,45.6890,-1.8741,20.2,0.051383,-0.088882,00111100,5,93,12.5
IF000194,67319,2006/09/15 00:00:12,45.6851,-1.8746,20.12,-0.010876,-0.121439,00111100,7,79,12.5
IF000194,67319,2006/09/15 01:00:12,45.6811,-1.8775,20.12,-0.062579,-0.12355,00111100,8,88,12.5
IF000194,67319,2006/09/15 02:00:41,45.6785,-1.8799,20.04,-0.051378,-0.079666,00111100,5,95,12.5
IF000194,67319,2006/09/15 03:00:12,45.6783,-1.8803,20.04,-0.008702,-0.006228,00111100,9,96,12.5
IF000194,67319,2006/09/15 04:00:12,45.6799,-1.8769,20.04,0.073373,0.04942,00111100,4,84,12.5
IF000194,67319,2006/09/15 05:00:13,45.6829,-1.8725,20.04,0.094923,0.092637,00111100,5,80,12.5
IF000194,67319,2006/09/15 06:00:41,45.6846,-1.8667,20.12,0.12419,0.052103,00111100,6,93,12.5
IF000194,67319,2006/09/15 07:00:12,45.6844,-1.8614,20.2,0.115294,-0.006228,00111100,5,93,12.5
IF000194,67319,2006/09/15 08:00:36,45.6827,-1.8567,20.12,0.100748,-0.052161,00111100,3,92,12.5
IF000194,67319,2006/09/15 09:00:12,45.6803,-1.8533,20.12,0.073862,-0.074627,00111100,3,96,12.5
IF000194,67319,2006/09/15 10:00:12,45.6775,-1.8508,20.2,0.053951,-0.086485,00111100,3,98,12.5
IF000194,67319,2006/09/15 11:00:43,45.6743,-1.8498,20.2,0.021397,-0.097996,00111100,1,95,12.5
IF000194,67319,2006/09/15 12:00:11,45.6718,-1.8511,20.36,-0.028309,-0.077911,00111100,3,98,12.5
IF000194,67319,2006/09/15 13:00:13,45.6681,-1.8548,20.36,-0.079816,-0.11422,00111100,11,98,12.5
IF000194,67319,2006/09/15 14:00:41,45.6647,-1.8596,20.36,-0.10281,-0.104207,00111100,5,100,12.5
IF000194,67319,2006/09/15 15:00:12,45.6632,-1.8626,20.36,-0.065284,-0.046707,00111100,7,98,12.5
IF000194,67319,2006/09/15 16:00:12,45.6642,-1.8624,20.36,0.004317,0.030887,00111100,5,100,12.5
IF000194,67319,2006/09/15 17:00:41,45.6668,-1.8594,20.36,0.064239,0.079666,00111100,3,88,12.5
IF000194,67319,2006/09/15 18:00:12,45.6689,-1.8548,20.44,0.100096,0.06539,00111100,3,88,12.5
IF000194,67319,2006/09/15 19:00:12,45.6692,-1.8505,20.44,0.092812,0.009266,00111100,5,90,12.5
IF000194,67319,2006/09/15 20:00:41,45.6681,-1.8467,20.44,0.081365,-0.033705,00111100,6,98,12.5
IF000194,67319,2006/09/15 21:00:12,45.6664,-1.8429,20.52,0.082689,-0.052935,00111100,3,98,12.5
IF000194,67319,2006/09/15 22:00:12,45.6641,-1.8393,20.52,0.077708,-0.071041,00111100,1,98,12.5
IF000194,67319,2006/09/15 23:00:37,45.6618,-1.8378,20.52,0.032157,-0.070551,00111100,5,98,12.5
IF000194,67319,2006/09/16 00:00:12,45.6592,-1.8366,20.52,0.026086,-0.080869,00111100,4,95,12.5
IF000194,67319,2006/09/16 01:00:12,45.6560,-1.8370,20.52,-0.008635,-0.09884,00111100,6,98,12.5
IF000194,67319,2006/09/16 02:00:41,45.6522,-1.8390,20.44,-0.042835,-0.116434,00111100,5,93,12.5
IF000194,67319,2006/09/16 03:00:12,45.6492,-1.8411,20.44,-0.04571,-0.093415,00111100,8,93,12.5
IF000194,67319,2006/09/16 04:00:41,45.6473,-1.8422,20.36,-0.023562,-0.058217,00111100,5,98,12.5
IF000194,67319,2006/09/16 05:00:12,45.6471,-1.8412,20.36,0.021768,-0.006228,00111100,3,98,12.5
IF000194,67319,2006/09/16 06:00:12,45.6478,-1.8382,20.36,0.064778,0.021621,00111100,5,100,12.5
IF000194,67319,2006/09/16 07:00:41,45.6473,-1.8334,20.36,0.102816,-0.01532,00111100,3,100,12.5
IF000194,67319,2006/09/16 08:00:40,45.6459,-1.8293,20.36,0.088555,-0.043254,00111100,4,100,12.5
IF000194,67319,2006/09/16 09:00:13,45.6430,-1.8256,20.36,0.0805,-0.090251,00111100,1,100,12.5
IF000194,67319,2006/09/16 10:00:41,45.6394,-1.8230,20.28,0.055714,-0.110337,00111100,8,100,12.5
IF000194,67319,2006/09/16 11:00:12,45.6362,-1.8223,20.28,0.01524,-0.099643,00111100,1,100,12.4
IF000194,67319,2006/09/16 12:00:13,45.6332,-1.8225,20.28,-0.004318,-0.092637,00111100,8,100,12.5
IF000194,67319,2006/09/16 13:01:05,45.6294,-1.8239,20.28,-0.029808,-0.115701,00111100,4,100,12.5
IF000194,67319,2006/09/16 14:01:11,45.6256,-1.8276,20.2,-0.079788,-0.117177,00111100,7,100,12.5
IF000194,67319,2006/09/16 15:00:17,45.6224,-1.8317,20.2,-0.089915,-0.100345,00111100,5,100,12.5
IF000194,67319,2006/09/16 16:00:11,45.6199,-1.8352,20.12,-0.075736,-0.077348,00111100,7,100,12.5
IF000194,67319,2006/09/16 17:00:13,45.6189,-1.8359,20.04,-0.015114,-0.03087,00111100,1,100,12.5
IF000194,67319,2006/09/16 18:01:11,45.6192,-1.8345,20.04,0.029765,0.009119,00111100,1,100,12.5
IF000194,67319,2006/09/16 19:00:10,45.6204,-1.8307,20.04,0.083507,0.037704,00111100,3,100,12.5
IF000194,67319,2006/09/16 20:00:10,45.6204,-1.8261,20.04,0.099374,0,00111100,3,100,12.5
IF000194,67319,2006/09/16 21:00:16,45.6188,-1.8215,20.04,0.09921,-0.049338,00111100,1,100,12.5
IF000194,67319,2006/09/16 22:00:40,45.6170,-1.8183,20.12,0.068675,-0.055229,00111100,1,100,12.5
IF000194,67319,2006/09/16 23:00:16,45.6151,-1.8155,20.12,0.060899,-0.05908,00111100,1,96,12.5
IF000194,67319,2006/09/17 00:00:40,45.6136,-1.8129,20.04,0.055802,-0.046024,00111100,4,100,12.5
IF000194,67319,2006/09/17 01:00:16,45.6116,-1.8121,20.04,0.017401,-0.06219,00111100,1,95,12.5
IF000194,67319,2006/09/17 02:00:16,45.6089,-1.8137,20.04,-0.034571,-0.083396,00111100,11,84,12.5
IF000194,67319,2006/09/17 03:00:40,45.6061,-1.8179,20.04,-0.090152,-0.085912,00111100,7,88,12.5
IF000194,67319,2006/09/17 04:00:16,45.6041,-1.8229,19.96,-0.108769,-0.06219,00111100,9,47,12.5
IF000194,67319,2006/09/17 05:00:16,45.6040,-1.8269,19.88,-0.086437,-0.003089,00111100,4,0,12.5
IF000194,67319,2006/09/17 06:00:40,45.6057,-1.8282,19.88,-0.027906,0.052161,00111100,6,0,12.5
IF000194,67319,2006/09/17 07:00:11,45.6084,-1.8269,19.88,0.028319,0.084073,00111100,1,0,12.5
IF000194,67319,2006/09/17 08:00:10,45.6112,-1.8246,19.88,0.04971,0.086509,00111100,3,0,12.4
IF000194,67319,2006/09/17 09:00:40,45.6132,-1.8213,19.96,0.070711,0.061264,00111100,1,3,12.5
IF000194,67319,2006/09/17 10:00:11,45.6144,-1.8185,20.04,0.060987,0.037366,00111100,3,0,12.4
IF000194,67319,2006/09/17 11:00:12,45.6148,-1.8150,20.2,0.075597,0.012352,00111100,1,0,12.4
IF000194,67319,2006/09/17 12:00:39,45.6147,-1.8115,20.12,0.075055,-0.003066,00111100,6,0,12.4
IF000194,67319,2006/09/17 13:00:12,45.6137,-1.8092,20.12,0.050068,-0.031121,00111100,5,0,12.4
IF000194,67319,2006/09/17 14:00:11,45.6117,-1.8086,20.12,0.012967,-0.061792,00111100,4,0,12.4
IF000194,67319,2006/09/17 15:00:11,45.6089,-1.8105,20.12,-0.041053,-0.086485,00111100,5,0,12.4
IF000194,67319,2006/09/17 16:00:40,45.6061,-1.8149,20.04,-0.094315,-0.085794,00111100,5,0,12.4
IF000194,67319,2006/09/17 17:00:11,45.6045,-1.8196,20.04,-0.102386,-0.049821,00111100,5,0,12.4
IF000194,67319,2006/09/17 18:00:10,45.6045,-1.8244,20.04,-0.103753,0,00111100,3,0,12.4
IF000194,67319,2006/09/17 19:00:18,45.6065,-1.8266,20.04,-0.047434,0.061638,00111100,4,0,12.4
IF000194,67319,2006/09/17 20:00:40,45.6097,-1.8256,19.96,0.021476,0.09824,00111100,1,1,12.4
IF000194,67319,2006/09/17 21:00:11,45.6134,-1.8238,19.96,0.039207,0.115212,00111100,3,3,12.4
IF000194,67319,2006/09/17 22:00:11,45.6163,-1.8208,19.96,0.064815,0.089574,00111100,3,3,12.4
IF000194,67319,2006/09/17 23:00:11,45.6185,-1.8174,19.96,0.073454,0.067952,00111100,4,12,12.4
IF000194,67319,2006/09/18 00:00:41,45.6197,-1.8152,19.88,0.047135,0.036759,00111100,9,25,12.4
IF000194,67319,2006/09/18 01:00:11,45.6201,-1.8139,19.88,0.02832,0.012459,00111100,8,3,12.4
IF000194,67319,2006/09/18 02:00:16,45.6195,-1.8145,19.88,-0.012944,-0.018507,00111100,7,9,12.4
IF000194,67319,2006/09/18 03:00:11,45.6178,-1.8172,19.8,-0.058411,-0.052582,00111100,6,6,12.4
IF000194,67319,2006/09/18 04:00:40,45.6154,-1.8220,19.8,-0.102873,-0.073538,00111100,7,9,12.4
IF000194,67319,2006/09/18 05:00:11,45.6131,-1.8281,19.8,-0.132863,-0.071618,00111100,5,0,12.4
IF000194,67319,2006/09/18 06:00:11,45.6124,-1.8341,19.8,-0.129636,-0.021621,00111100,1,0,12.4
IF000194,67319,2006/09/18 07:00:16,45.6138,-1.8391,19.8,-0.107879,0.043182,00111100,3,0,12.4
IF000194,67319,2006/09/18 08:00:40,45.6169,-1.8420,19.8,-0.062239,0.095117,00111100,3,0,12.4
IF000194,67319,2006/09/18 09:00:16,45.6209,-1.8424,19.8,-0.008699,0.124379,00111100,1,0,12.4
IF000194,67319,2006/09/18 10:00:12,45.6250,-1.8409,19.8,0.032439,0.12678,00111100,1,0,12.4
IF000194,67319,2006/09/18 11:00:16,45.6282,-1.8385,19.88,0.051784,0.09873,00111100,1,0,12.4
IF000194,67319,2006/09/18 12:00:40,45.6299,-1.8367,20.04,0.038622,0.052161,00111100,5,0,12.4
IF000194,67319,2006/09/18 13:00:11,45.6294,-1.8349,20.12,0.039195,-0.015569,00111100,10,1,12.4
IF000194,67319,2006/09/18 14:00:16,45.6284,-1.8343,20.2,0.012942,-0.030845,00111100,7,0,12.4
IF000194,67319,2006/09/18 15:00:11,45.6254,-1.8373,20.2,-0.064892,-0.092791,00111100,5,7,12.4
IF000194,67319,2006/09/18 16:00:40,45.6216,-1.8439,20.2,-0.141432,-0.116434,00111100,5,3,12.4
IF000194,67319,2006/09/18 17:00:16,45.6183,-1.8546,20.28,-0.232705,-0.102613,00111100,5,12,12.4
IF000194,67319,2006/09/18 18:00:12,45.6170,-1.8658,20.28,-0.242234,-0.040198,00111100,4,4,12.4
IF000194,67319,2006/09/18 19:00:16,45.6187,-1.8747,20.2,-0.192062,0.05245,00111100,6,6,12.4
IF000194,67319,2006/09/18 20:00:40,45.6237,-1.8800,20.2,-0.113736,0.153415,00111100,5,9,12.4
IF000194,67319,2006/09/18 21:00:11,45.6304,-1.8807,20.12,-0.015243,0.208627,00111100,4,3,12.4
IF000194,67319,2006/09/18 22:00:16,45.6368,-1.8781,20.12,0.056077,0.197406,00111100,3,0,12.4
IF000194,67319,2006/09/18 23:00:15,45.6414,-1.8738,20.04,0.092888,0.142122,00111100,4,0,12.4
IF000194,67319,2006/09/19 00:00:39,45.6439,-1.8678,19.88,0.128708,0.076707,00111100,1,0,12.4
IF000194,67319,2006/09/19 01:00:12,45.6441,-1.8625,19.88,0.115312,0.006224,00111100,7,0,12.4
IF000194,67319,2006/09/19 02:00:11,45.6418,-1.8590,19.88,0.075601,-0.071061,00111100,6,0,12.4
IF000194,67319,2006/09/19 03:00:16,45.6382,-1.8592,19.88,-0.004313,-0.111041,00111100,5,0,12.4
IF000194,67319,2006/09/19 04:00:40,45.6324,-1.8643,19.88,-0.109416,-0.177961,00111100,8,25,12.4
IF000194,67319,2006/09/19 05:00:11,45.6280,-1.8726,19.96,-0.180729,-0.137009,00111100,3,12,12.4
IF000194,67319,2006/09/19 06:00:15,45.6253,-1.8840,20.04,-0.245973,-0.083304,00111100,4,33,12.4
IF000194,67319,2006/09/19 07:00:40,45.6263,-1.8927,20.04,-0.186632,0.030674,00111100,5,15,12.4
IF000194,67319,2006/09/19 08:00:11,45.6308,-1.8982,20.04,-0.119764,0.140122,00111100,1,22,12.4
IF000194,67319,2006/09/19 09:00:06,45.6375,-1.8985,20.04,-0.006488,0.207234,00111100,5,6,12.4
IF000194,67319,2006/09/19 10:00:40,45.6450,-1.8944,20.04,0.087711,0.229489,00111100,4,3,12.4
IF000194,67319,2006/09/19 11:00:10,45.6512,-1.8873,20.04,0.154594,0.193112,00111100,1,4,12.4
IF000194,67319,2006/09/19 12:00:11,45.6549,-1.8794,20.12,0.170517,0.114252,00111100,7,1,12.4
IF000194,67319,2006/09/19 12:02:19,45.6549,-1.8794,-0.36,0,0,00111400,1,1,12.4